TimeCST,TemperatureF,Dew PointF,Humidity,Sea Level PressureIn,VisibilityMPH,Wind Direction,Wind SpeedMPH,Gust SpeedMPH,PrecipitationIn,Events,Conditions,WindDirDegrees,DateUTC
12:42 AM,26.6,17.6,69,30.37,10.0,North,17.3,26.5,N/A,,Overcast,350,2013-03-06 06:42:00
12:53 AM,27.0,18.0,69,30.40,10.0,NNW,15.0,-,N/A,,Overcast,340,2013-03-06 06:53:00
1:53 AM,27.0,17.1,66,30.42,10.0,NNW,13.8,-,N/A,,Overcast,340,2013-03-06 07:53:00
2:17 AM,26.6,17.6,69,30.40,10.0,NNW,15.0,-,N/A,,Overcast,340,2013-03-06 08:17:00
2:31 AM,26.6,17.6,69,30.39,10.0,NNW,15.0,20.7,N/A,,Overcast,340,2013-03-06 08:31:00
2:53 AM,27.0,17.1,66,30.42,10.0,North,16.1,-,N/A,,Overcast,360,2013-03-06 08:53:00
3:53 AM,25.0,17.1,72,30.43,10.0,North,12.7,-,N/A,,Mostly Cloudy,360,2013-03-06 09:53:00
4:03 AM,24.8,17.6,74,30.40,10.0,North,8.1,-,N/A,,Scattered Clouds,350,2013-03-06 10:03:00
4:53 AM,21.9,15.1,75,30.45,10.0,NNW,6.9,-,N/A,,Clear,330,2013-03-06 10:53:00
5:53 AM,21.9,15.1,75,30.46,10.0,NNW,6.9,-,N/A,,Clear,330,2013-03-06 11:53:00
6:53 AM,19.0,12.9,77,30.47,10.0,Calm,Calm,-,N/A,,Clear,0,2013-03-06 12:53:00
7:53 AM,23.0,17.1,78,30.47,10.0,Calm,Calm,-,N/A,,Clear,0,2013-03-06 13:53:00
8:53 AM,27.0,18.0,69,30.48,10.0,NNE,9.2,-,N/A,,Partly Cloudy,30,2013-03-06 14:53:00
9:07 AM,26.6,17.6,69,30.44,10.0,NNE,9.2,-,N/A,,Mostly Cloudy,20,2013-03-06 15:07:00
9:53 AM,28.9,19.0,67,30.48,10.0,Variable,6.9,-,N/A,,Overcast,0,2013-03-06 15:53:00
10:53 AM,30.0,19.0,64,30.47,10.0,Variable,5.8,-,N/A,,Mostly Cloudy,0,2013-03-06 16:53:00
11:13 AM,30.2,17.6,60,30.44,10.0,North,4.6,-,N/A,,Scattered Clouds,350,2013-03-06 17:13:00
11:21 AM,30.2,19.4,64,30.43,10.0,NNW,5.8,-,N/A,,Mostly Cloudy,330,2013-03-06 17:21:00
11:28 AM,30.2,19.4,64,30.43,10.0,NW,6.9,-,N/A,,Partly Cloudy,320,2013-03-06 17:28:00
11:53 AM,32.0,19.0,59,30.45,10.0,Calm,Calm,-,N/A,,Clear,0,2013-03-06 17:53:00
12:53 PM,32.0,19.0,59,30.44,10.0,Calm,Calm,-,N/A,,Clear,0,2013-03-06 18:53:00
1:53 PM,34.0,19.0,54,30.42,10.0,Calm,Calm,-,N/A,,Clear,0,2013-03-06 19:53:00
2:53 PM,36.0,19.9,52,30.39,10.0,Calm,Calm,-,N/A,,Clear,0,2013-03-06 20:53:00
3:53 PM,36.0,19.0,50,30.37,10.0,SSW,3.5,-,N/A,,Clear,210,2013-03-06 21:53:00
4:53 PM,36.0,21.0,55,30.36,10.0,SSE,3.5,-,N/A,,Clear,160,2013-03-06 22:53:00
5:53 PM,34.0,19.9,56,30.35,10.0,SE,6.9,-,N/A,,Clear,130,2013-03-06 23:53:00
6:53 PM,32.0,19.9,61,30.34,10.0,ESE,5.8,-,N/A,,Clear,120,2013-03-07 00:53:00
7:53 PM,30.0,19.0,64,30.34,10.0,ESE,6.9,-,N/A,,Clear,120,2013-03-07 01:53:00
8:53 PM,30.0,19.0,64,30.33,10.0,ESE,6.9,-,N/A,,Clear,120,2013-03-07 02:53:00
9:53 PM,28.9,19.0,67,30.33,10.0,SE,5.8,-,N/A,,Clear,130,2013-03-07 03:53:00
10:53 PM,27.0,19.0,72,30.34,10.0,SE,6.9,-,N/A,,Clear,130,2013-03-07 04:53:00
11:53 PM,26.1,19.0,75,30.33,10.0,SE,8.1,-,N/A,,Clear,130,2013-03-07 05:53:00